Location: New Orleans
(29.9540°N, 90.0750°W)
Time: 17:47:50
(UTC-06:00)

Hubble Space Telescope - Visible Passes

Search period start: 25 January 2020 00:00
Search period end: 04 February 2020 00:00
Orbit: 536 x 540 km, 28.5° (Epoch: 25 January)

Date Brightness Start Highest point End Pass type
(mag) Time Alt. Az. Time Alt. Az. Time Alt. Az.
28 Jan 2.4 06:17:06 10° SW 06:20:46 31° SSE 06:24:25 10° E visible
29 Jan 3.6 04:29:39 12° SSE 04:29:39 12° SSE 04:31:02 10° SE visible
29 Jan 2.1 06:06:17 10° SW 06:10:06 37° SSE 06:13:55 10° E visible
30 Jan 3.6 04:20:06 13° SE 04:20:06 13° SE 04:21:09 10° ESE visible
30 Jan 1.7 05:55:31 10° WSW 05:59:26 44° SSE 06:03:22 10° E visible
31 Jan 3.9 04:10:25 12° ESE 04:10:25 12° ESE 04:10:58 10° ESE visible
31 Jan 1.4 05:45:46 16° WSW 05:48:48 51° SSE 05:52:48 10° E visible
01 Feb 1.1 05:35:59 25° WSW 05:38:10 58° S 05:42:13 10° E visible
02 Feb 1.0 05:26:07 37° WSW 05:27:32 64° S 05:31:37 10° E visible
03 Feb 0.8 05:16:11 54° SW 05:16:55 69° S 05:21:01 10° E visible
